Change the Weather History Date:

Wednesday, January 1, 2014

  Actual Average Record
Temperature  
Mean Temperature 24 °F -  
Max Temperature 28 °F 36 °F 64 °F (1966)
Min Temperature 20 °F 19 °F -3 °F (1963)
Degree Days  
Heating Degree Days 40    
Moisture  
Dew Point 18 °F    
Average Humidity 82    
Maximum Humidity 97    
Minimum Humidity 72    
Precipitation  
Precipitation 0.00 in - - ()
Sea Level Pressure  
Sea Level Pressure 30.23 in    
Wind  
Wind Speed 6 mph (West)    
Max Wind Speed 13 mph    
Max Gust Speed 18 mph    
Visibility 8 miles    
Events Snow    
Averages and records for this station are not official NWS values.
T = Trace of Precipitation, MM = Missing Value Source: NWS Daily Summary

Daily Weather History Graph

Daily Weather History Graph

Search for Another Location

Airport or City:

Trip Planner

Search our weather history database for the weather conditions in past years. The results will help you decide how hot, cold, wet, or windy it might be!

Date:

Astronomy

Jan. 01, 2014 Rise Set
Actual Time 7:35 AM EST 4:54 PM EST
Civil Twilight 7:04 AM EST 5:25 PM EST
Nautical Twilight 6:30 AM EST 5:59 PM EST
Astronomical Twilight 5:57 AM EST 6:32 PM EST
Moon 7:24 AM EST (1/1) 5:37 PM EST (1/1)
Length of Visible Light 10h 20m
Length of Day
9h 18m
New Moon, 0% of the Moon is Illuminated
Jan 1
New Moon
Jan 7
First Quarter
Jan 15
Full
Jan 24
Last Quarter
Jan 30
New

Hourly Weather History & Observations

Time (EST) Temp. Windchill Dew Point Humidity Pressure Visibility Wind Dir Wind Speed Gust Speed Precip Events Conditions
12:15 AM 21.7 °F 10.8 °F 14.0 °F 72% 30.23 in 10.0 mi WSW 10.4 mph - N/A   Scattered Clouds
12:35 AM 22.1 °F 14.7 °F 14.5 °F 73% 30.23 in 10.0 mi West 5.8 mph - N/A   Mostly Cloudy
12:55 AM 22.1 °F 12.8 °F 15.3 °F 75% 30.23 in 10.0 mi WSW 8.1 mph - N/A Snow Light Snow
1:15 AM 22.3 °F 13.9 °F 15.6 °F 76% 30.23 in 10.0 mi West 6.9 mph - N/A Snow Light Snow
1:35 AM 22.8 °F 12.9 °F 16.2 °F 76% 30.24 in 10.0 mi WSW 9.2 mph - N/A Snow Light Snow
1:55 AM 23.0 °F 13.9 °F 16.7 °F 77% 30.25 in 10.0 mi West 8.1 mph - N/A Snow Light Snow
2:15 AM 23.0 °F 17.0 °F 17.2 °F 79% 30.25 in 5.0 mi West 4.6 mph - N/A Snow Light Snow
2:35 AM 22.8 °F 16.7 °F 17.4 °F 80% 30.26 in 4.0 mi WNW 4.6 mph - N/A Snow Light Snow
2:55 AM 22.3 °F 17.6 °F 17.4 °F 82% 30.27 in 3.0 mi West 3.5 mph - N/A Snow Light Snow
3:15 AM 22.5 °F 15.1 °F 17.2 °F 80% 30.28 in 5.0 mi West 5.8 mph - N/A Snow Light Snow
3:35 AM 22.1 °F 17.4 °F 17.1 °F 81% 30.26 in 7.0 mi West 3.5 mph - N/A Snow Light Snow
3:55 AM 22.6 °F 14.3 °F 17.4 °F 80% 30.27 in 10.0 mi West 6.9 mph - N/A Snow Light Snow
4:15 AM 22.8 °F 12.2 °F 16.5 °F 77% 30.28 in 10.0 mi West 10.4 mph - N/A   Overcast
4:35 AM 23.2 °F 11.4 °F 16.3 °F 75% 30.28 in 10.0 mi West 12.7 mph 18.4 mph N/A   Overcast
4:55 AM 23.0 °F 13.9 °F 16.3 °F 76% 30.28 in 10.0 mi WSW 8.1 mph - N/A   Overcast
5:15 AM 22.6 °F 14.3 °F 16.5 °F 77% 30.28 in 7.0 mi WSW 6.9 mph - N/A   Overcast
5:35 AM 22.1 °F 17.4 °F 16.7 °F 80% 30.28 in 7.0 mi SW 3.5 mph - N/A Snow Light Snow
5:53 AM 21.2 °F 16.4 °F 15.8 °F 80% 30.27 in 5.0 mi WSW 3.5 mph - N/A Snow Light Snow
6:53 AM 21.2 °F 14.9 °F 15.8 °F 80% 30.27 in 5.0 mi WNW 4.6 mph - N/A Snow Light Snow
7:53 AM 21.2 °F - 17.6 °F 86% 30.30 in 4.0 mi Calm Calm - N/A Snow Light Snow
8:53 AM 21.2 °F - 17.6 °F 86% 30.30 in 5.0 mi Calm Calm - N/A Snow Light Snow
9:53 AM 23.0 °F - 17.6 °F 80% 30.32 in 3.0 mi Calm Calm - N/A Snow Light Snow
10:53 AM 24.8 °F - 19.4 °F 80% 30.31 in 7.0 mi Calm Calm - N/A   Scattered Clouds
11:53 AM 24.8 °F - 19.4 °F 80% 30.27 in 7.0 mi Calm Calm - N/A   Overcast
12:53 PM 26.6 °F 22.6 °F 19.4 °F 74% 30.23 in 7.0 mi Variable 3.5 mph - N/A   Overcast
1:53 PM 28.4 °F 24.6 °F 21.2 °F 74% 30.22 in 7.0 mi Variable 3.5 mph - N/A   Overcast
2:53 PM 28.4 °F 22.2 °F 21.2 °F 74% 30.20 in 7.0 mi NE 5.8 mph - N/A   Mostly Cloudy
3:53 PM 28.4 °F 21.2 °F 21.2 °F 74% 30.20 in 7.0 mi NE 6.9 mph - N/A   Overcast
4:53 PM 26.6 °F 20.0 °F 21.2 °F 80% 30.20 in 7.0 mi Variable 5.8 mph - N/A   Overcast
5:53 PM 24.8 °F 17.9 °F 21.2 °F 86% 30.20 in 10.0 mi South 5.8 mph - N/A   Overcast
6:53 PM 24.8 °F 17.9 °F 21.2 °F 86% 30.20 in 10.0 mi South 5.8 mph - N/A   Overcast
7:53 PM 24.8 °F 17.9 °F 21.2 °F 86% 30.20 in 10.0 mi South 5.8 mph - N/A   Overcast
8:53 PM 23.0 °F - 21.2 °F 93% 30.19 in 10.0 mi Calm Calm - N/A   Overcast
9:55 PM 22.5 °F 15.1 °F 21.0 °F 94% 30.15 in 10.0 mi NNE 5.8 mph - N/A   Clear
10:15 PM 22.1 °F 14.7 °F 20.8 °F 95% 30.15 in 10.0 mi NNE 5.8 mph - N/A   Clear
10:35 PM 22.1 °F 14.7 °F 20.8 °F 95% 30.13 in 10.0 mi NNE 5.8 mph - N/A   Clear
10:55 PM 21.9 °F 13.4 °F 20.8 °F 96% 30.13 in 7.0 mi NE 6.9 mph - N/A   Clear
11:15 PM 21.4 °F 13.8 °F 20.3 °F 96% 30.12 in 7.0 mi NE 5.8 mph - N/A   Clear
11:35 PM 21.2 °F 13.6 °F 20.3 °F 96% 30.11 in 7.0 mi NE 5.8 mph - N/A   Clear
11:55 PM 20.8 °F - 20.1 °F 97% 30.11 in 5.0 mi Calm Calm - N/A   Clear